Regional Weather Roundup
Issued by NWS

Home | Current Version | Previous Version | Text Only | Print | Product List | Glossary On
Versions: 1 2 3 4 5 6 7 8 9 10 11 12 13 14 15 16 17 18 19 20 21 22 23 24 25 26 27
000
ASUS45 KPSR 271310
RWRAZ

ARIZONA HOURLY REGIONAL WEATHER ROUNDUP
NATIONAL WEATHER SERVICE PHOENIX AZ
600 AM MST WED JUL 27 2016

NOTE: FAIR INDICATES FEW OR NO CLOUDS BELOW 12,000 FEET WITH NO
SIGNIFICANT WEATHER AND/OR OBSTRUCTIONS TO VISIBILITY.

AZZ001>003-036-271400-
NORTHWEST ARIZONA

CITY           SKY/WX    TMP DP  RH WIND       PRES   REMARKS
BULLHEAD CITY  CLEAR     93  55  27 SE3       29.78R
KINGMAN        CLEAR     79  50  36 SE6       30.02R
$$

AZZ004>008-015-016-018-271400-
NORTH CENTRAL ARIZONA

CITY           SKY/WX    TMP DP  RH WIND       PRES   REMARKS
GRAND CANYON   CLEAR     51  43  74 CALM      30.31R
WILLIAMS       CLEAR     55  50  82 SE8       30.38R
PRESCOTT       CLEAR     67  56  67 VRB3      30.17R
FLAGSTAFF      CLEAR     52  50  93 CALM      30.34R
PAYSON         CLEAR     70  52  52 CALM      30.20R
PAGE           CLEAR     77  42  28 W6        30.10R
$$

AZZ009>014-017-271400-
NORTHEAST ARIZONA

CITY           SKY/WX    TMP DP  RH WIND       PRES   REMARKS
WINSLOW        CLEAR     64  50  60 SE5       30.17R
SAINT JOHNS    MOCLDY    64  55  72 CALM      30.22R
WINDOW ROCK    CLEAR     55  49  80 CALM      30.32R
SHOW LOW       MOCLDY    66  48  52 S5        30.28R
$$

AZZ023-271400-
GREATER PHOENIX AREA

CITY           SKY/WX    TMP DP  RH WIND       PRES   REMARKS
PHOENIX        PTCLDY    91  63  39 SE6       29.84R
BUCKEYE        CLEAR     86  55  35 CALM      29.86R
GLENDALE       PTCLDY    90  63  40 CALM      29.85
LUKE AFB       CLEAR     90  60  35 CALM      29.84R
DEER VALLEY    CLEAR     89  61  38 CALM      29.87R
SCOTTSDALE     CLEAR     90  62  39 CALM      29.89R
MESA-FALCON    PTCLDY   N/A N/A N/A E6        29.85
MESA-GATEWAY   CLEAR     86  59  39 SE6       29.88R
CHANDLER       PTCLDY    88  61  40 CALM      29.87
$$

AZZ027-028-271400-
SOUTHWEST MARICOPA COUNTY AND PINAL COUNTY

CITY           SKY/WX    TMP DP  RH WIND       PRES   REMARKS
CASA GRANDE    CLEAR     84  61  45 NE5       29.90R
GILA BEND      FAIR      88  57  34 W5        29.83R
$$

AZZ503-504-507>509-271400-
SOUTHEAST ARIZONA

CITY           SKY/WX    TMP DP  RH WIND       PRES   REMARKS
TUCSON         CLOUDY    81  67  62 SE10      30.02R
DAVIS-MONTHAN  MOCLDY    80  68  67 SE9       30.01R
RYAN FIELD     CLEAR     82  63  51 E7        30.00
NOGALES        PTCLDY    71  64  78 VRB3      30.11R
SIERRA VISTA   MOCLDY    70  60  70 W5        30.18R
DOUGLAS        CLOUDY    72  64  76 E7        30.14R
SAFFORD        MOCLDY    82  58  43 E9        30.05R
$$

AZZ020-021-025-026-031-271400-
SOUTHWEST ARIZONA

CITY           SKY/WX    TMP DP  RH WIND       PRES   REMARKS
YUMA           PTCLDY    88  63  43 N3        29.77R
$$

CAZ031-033-041-043-047-048-061-271400-
SOUTHERN CALIFORNIA

CITY           SKY/WX    TMP DP  RH WIND       PRES   REMARKS
DOWNTOWN L.A.  CLEAR     68  64  87 CALM      29.88R
L.A. AIRPORT   PTCLDY    69  65  86 NW3       29.89R
SAN DIEGO      PTCLDY    68  67  96 W3        29.90R
BURBANK        CLEAR     72  60  66 CALM      29.89R
ONTARIO        PTCLDY    74  50  42 CALM      29.90S
RIVERSIDE      CLEAR     74  51  44 CALM      29.90R
PALM SPRINGS   CLEAR     90  53  28 SE3       29.80R
EL CENTRO NAS  PTCLDY    84  70  62 S3        29.76R
IMPERIAL       CLEAR     87  72  60 SE5       29.74R
BLYTHE         CLEAR     89  63  41 S12       29.78R
NEEDLES        CLEAR     96  55  25 CALM      29.80R
$$

NVZ020-UTZ003-271400-
SOUTHERN NEVADA-UTAH

CITY           SKY/WX    TMP DP  RH WIND       PRES   REMARKS
LAS VEGAS      PTCLDY    91  44  19 S3        29.84R
SALT LAKE CITY CLEAR     72  40  31 SE7       30.10R
$$

NMZ009-TXZ055-271400-
NEW MEXICO-WEST TEXAS

CITY           SKY/WX    TMP DP  RH WIND       PRES   REMARKS
ALBUQUERQUE    PTCLDY    71  60  68 NE3       30.24R
EL PASO        CLOUDY    75  64  68 NE3       30.11S
$$


........................KEY........................
SKY/WX - SKY CONDITION/WEATHER
TMP    - TEMPERATURE IN FAHRENHEIT
DP     - DEW POINT IN FAHRENHEIT
RH     - RELATIVE HUMIDITY IN PERCENT
WIND   - DIRECTION AND SPEED IN MILES PER HOUR (MPH)
VRB    - VARIABLE WIND DIRECTION
PRES   - MEAN SEA LEVEL PRESSURE IN INCHES OF MERCURY
         F - FALLING PRESSURE   R - RISING PRESSURE
         S - STEADY PRESSURE
VSB    - VISIBILITY IN MILES
HX     - HEAT INDEX IN FAHRENHEIT
WCI    - WIND CHILL INDEX IN FAHRENHEIT
TC     - TEMPERATURE IN CELSIUS WHICH IS ALSO KNOWN AS
         TEMPERATURE IN CENTIGRADE
AFB    - AIR FORCE BASE
         LUKE AFB IS LUKE AIR FORCE BASE
         DAVIS-MONTHAN IS DAVIS-MONTHAN AIR FORCE BASE
NAS    - NAVAL AIR STATION
         EL CENTRO NAS IS EL CENTRO NAVAL AIR STATION
N/A    - NOT AVAILABLE





USA.gov is the U.S. government's official web portal to all federal, state and local government web resources and services.